Regional Weather Roundup
Issued by NWS

Home | Current Version | Previous Version | Text Only | Print | Product List | Glossary Off
Versions: 1 2 3 4 5 6 7 8 9 10 11 12 13 14 15 16 17 18 19 20 21 22 23 24 25 26 27 28 29 30 31 32 33 34 35 36 37 38 39 40 41 42 43 44 45 46 47 48 49 50

000
ASUS43 KLOT 250603
RWRIL

ILLINOIS REGIONAL WEATHER ROUNDUP
NATIONAL WEATHER SERVICE CHICAGO/ROMEOVILLE IL
100 AM CDT MON JUL 25 2016

NOTE: "FAIR" INDICATES FEW OR NO CLOUDS BELOW 12,000 FEET WITH NO
SIGNIFICANT WEATHER AND/OR OBSTRUCTIONS TO VISIBILITY.

* THESE STATIONS ARE NOT UNDER NWS QUALITY CONTROL. THEY ALSO MAY NOT
  REPORT WEATHER SUCH AS PRECIPITATION OR FOG.

ILZ001-002-007-009-015-016-024-250700-
NORTHWEST ILLINOIS

CITY           SKY/WX    TMP DP  RH WIND       PRES   REMARKS
MOLINE         CLOUDY    78  66  66 NW7       29.98R HX  80
6HR MIN TEMP:  74; 6HR MAX TEMP:  89;

STERLING*      CLOUDY    74  70  87 CALM      29.98R
SAVANNA*       CLOUDY    74  68  81 NW5       29.98R
$$

ILZ003-004-008-010-011-017-018-250700-
NORTH CENTRAL ILLINOIS

CITY           SKY/WX    TMP DP  RH WIND       PRES   REMARKS
ROCKFORD       CLOUDY    77  68  73 CALM      29.98R
6HR MIN TEMP:  77; 6HR MAX TEMP:  90;

FREEPORT*      MOCLDY    72  66  83 W3        29.99R
ROCHELLE*      CLOUDY    73  71  92 SW5       29.99R
DE KALB*       CLOUDY    74  71  92 S5        29.99R
$$

ILZ005-006-012>014-019>023-250700-
NORTHEAST ILLINOIS

CITY           SKY/WX    TMP DP  RH WIND       PRES   REMARKS
CHICAGO-OHARE  CLOUDY    75  68  78 SW8       29.96R
6HR MIN TEMP:  73; 6HR MAX TEMP:  79;

CHICAGO-MIDWAY CLOUDY    75  65  70 SW10      29.96R
6HR MIN TEMP:  74; 6HR MAX TEMP:  78; 6HR PCP:  0.14;

AURORA         CLOUDY    74  69  85 S6        29.98R
6HR MIN TEMP:  74; 6HR MAX TEMP:  88;

LANSING*       LGT RAIN  73  67  82 SW12G17   29.97R
WAUKEGAN       CLOUDY    77  72  84 VRB3      29.94R
6HR MIN TEMP:  76; 6HR MAX TEMP:  87;

DUPAGE AIRPORT CLOUDY    74  67  78 S8        29.97R
6HR MIN TEMP:  74; 6HR MAX TEMP:  84;

KANKAKEE*      LGT RAIN  71  66  84 SE10G17   29.98S
WHEELING       CLOUDY    77  66  68 SW10      29.97R
6HR MIN TEMP:  75; 6HR MAX TEMP:  79; 6HR PCP: TRACE;

MORRIS*        CLOUDY    72  68  87 SW8       29.97R
NORTHERLY ISL    N/A     76  63  64 SW10        N/A
$$

LMZ740>746-250700-
SOUTHERN LAKE MICHIGAN

STATION/POSITION SKY/WX   TEMP    WIND        PRES    VSBY  WAVE
                          AIR SEA DIR/SP/G                  HT/PER
                          (F)     (DEG/KT/KT) (MB)    (MI)  (FT/S)
SOUTHERN BUOY              75 73  210/ 10/ 10 1010.9          2/ 4
WILMETTE HARBOR            70 65  240/  8/ 10   N/A           1
HARRISON CRIB              76     210/ 21/ 24   N/A
BURNHAM HARBOR             76     190/  8/ 11   N/A
CALUMET HARBOR             75     180/ 10/ 16 1013.2R
BURNS HARBOR               74     190/ 18/ 22 1014.2R
MICHIGAN CITY              75     160/ 13/ 19   N/A
MICHIGAN CITY 6N           75 74  220/ 14/ 17   N/A           2/ 4
ST. JOSEPH                 75 74  180/ 12/ 14 1012.9R         3/ 5
$$

ILZ025>027-034>036-040-047-049-050-058-095>099-250700-
WEST-CENTRAL ILLINOIS

CITY           SKY/WX    TMP DP  RH WIND       PRES   REMARKS
QUINCY         CLOUDY    76  71  85 N7        29.97S
GALESBURG*     CLOUDY    74  70  87 CALM      30.00R
MACOMB*        CLOUDY    75  73  94 N3        30.02R
JACKSONVILLE*  CLOUDY    75  69  84 E7        29.98R
PITTSFIELD*    DRIZZLE   79  73  83 N7        29.97F HX  82
$$

ILZ028>032-037-038-041>044-048-051>054-059>061-250700-
CENTRAL ILLINOIS

CITY           SKY/WX    TMP DP  RH WIND       PRES   REMARKS
PONTIAC        CLOUDY    73  72  96 SE9       29.99F
BLOOMINGTON    CLOUDY    71  68  90 SE14      30.02R
DECATUR        TSTM      73  70  90 E15       30.02F
PEORIA         LGT RAIN  76  74  93 W7        29.99R
6HR MIN TEMP:  76; 6HR MAX TEMP:  90; 6HR PCP:  0.01;

LACON*         CLOUDY    75  73  94 CALM      29.96F
LINCOLN*       CLOUDY    73  70  92 S6        29.97S
SPRINGFIELD    TSTM      74  72  93 S12G23    30.02R FOG
6HR MIN TEMP:  74; 6HR MAX TEMP:  89; 6HR PCP:  3.11;

TAYLORVILLE    TSTM      73  73  97 NW3       30.06R
6HR MIN TEMP:  73; 6HR MAX TEMP:  88; 6HR PCP:  0.35;

$$

ILZ033-039-045-046-055>057-062-063-250700-
EAST-CENTRAL ILLINOIS

CITY           SKY/WX    TMP DP  RH WIND       PRES   REMARKS
CHAMPAIGN      LGT RAIN  70  68  93 W6        30.06F
MATTOON        LGT RAIN  72  68  87 N18G24    30.06R
$$

ILZ079-100>102-250700-
SOUTHWEST ILLINOIS

CITY           SKY/WX    TMP DP  RH WIND       PRES   REMARKS
ALTON          CLOUDY    72  69  93 E7        29.98F
BELLEVILLE     CLOUDY    81  81 100 NW9       29.97R HX  91
CAHOKIA*       CLOUDY    85  73  67 N10       29.97R HX  91
SPARTA*        CLEAR     79  76  90 CALM      29.99S HX  84
$$

ILZ064>066-069>071-074>076-080>082-084>086-088>090-092>094-250700-
SOUTH-CENTRAL ILLINOIS

CITY           SKY/WX    TMP DP  RH WIND       PRES   REMARKS
CARBONDALE     CLEAR     78  75  90 CALM      29.99R HX  81
6HR MIN TEMP:  77; 6HR MAX TEMP:  88;

CAIRO*         CLEAR     80  77  92 CALM      29.99R HX  85
EFFINGHAM*     CLOUDY    76  71  83 N8G18     30.07R
MARION         CLEAR     79  77  94 CALM      30.00R HX  83
MT. VERNON     CLEAR     75  72  88 CALM      29.99F
CENTRALIA*     PTCLDY    78  76  95 CALM      29.99R HX  80
SALEM*         CLOUDY    80  75  83 CALM      30.00R HX  85
METROPOLIS*    CLEAR     78  77  96 CALM      30.00R FOG     HX  80
$$

ILZ067-068-072-073-078-083-087-091-250700-
SOUTHEAST ILLINOIS

CITY           SKY/WX    TMP DP  RH WIND       PRES   REMARKS
LAWRENCEVILLE  CLEAR     78  77  96 N5        30.01R HX  81
FLORA*         CLEAR     78  76  94 CALM      30.00R FOG     HX  80
FAIRFIELD*     CLEAR     78  77  98 CALM      29.98S FOG
HARRISBURG*    CLEAR     78  77  98 CALM      30.00R FOG     HX  80
ROBINSON*      CLOUDY    74  69  83 N13G22    30.05R
CARMI*         CLEAR     76  76 100 CALM      29.98S FOG
$$

ABBREVIATIONS USED IN REMARKS
   TC - TEMPERATURE IN CELSIUS
  WCI - WIND CHILL INDEX
   HX - HEAT INDEX
  VSB - VISIBILITY
$$





USA.gov is the U.S. government's official web portal to all federal, state and local government web resources and services.